Details From LFMH - Saint Etienne Boutheon
To LESO - San Sebastian
Flight Number -
Tags Generated
Created
Modified
Stats Distance 293 nm / 542 km
Max Altitude 0 ft / 0 m
Waypoints 3
Social Downloads 2
Likes 0
Share VATSIM

Download

Looking for another format? Having issues loading an existing format? Contact us
Advertisement - Login to hide

Notes

Generated

Route

LFMH BTZ LESO

ID Type Via Altitude Latitude Longitude Leg Dist Tot Dist Heading (true) Name
O LFMH APT - 0 ft / 0 m 45.55120˚ 4.29514˚ - 0 nm - -
BTZ VOR - 0 ft / 0 m 43.46664˚ -1.51028˚ 278 nm 278 nm 245° / 241° BIARRITZ BAYONNE ANGLET VOR-DM
O LESO APT - 0 ft / 0 m 43.35035˚ -1.79740˚ 14 nm 292 nm 241° / 241° -

Altitude Profile

Advertisement - Login to hide

Weather


0- 5 10 15 20 25 30 35+ Temperature / ° C

Clouds and Precipitation
Forecast for 2018-05-24 12:00 UTC. Updated 5 hours ago

Ground ~20,000 ft ~40,000 ft Winds

LFMH

Details ICAO LFMH (EBU)
Name Saint Etienne Boutheon
Region France
Timezone Europe/Paris (UTC+2.0)
Stats Elevation 1,325 ft / 404 m (AMSL)
Location 45.540868° 4.296450°
Runways 1
Magnetic Variation 1.340° E

METAR

LFMH 241600Z AUTO 10003KT 050V120 9999 ///CB 23/12 Q1016 NOSIG

Decode

TAF

TAF LFMH 241400Z 2415/2515 VRB03KT 9999 FEW045 TEMPO 2415/2420 FEW055CB

Decode

Departure Runways

ID Width Length Bearing (true) Bearing (mag) Surface Threshold Offset Overrun Length
18 148 ft / 45 m 7,568 ft / 2,307 m 174.93° 173.59° Asphalt 984 ft / 300 m 0 ft / 0 m
36 148 ft / 45 m 7,568 ft / 2,307 m 354.93° 353.59° Asphalt 558 ft / 170 m 0 ft / 0 m

LESO

Details ICAO LESO (EAS)
Name San_Sebastian
Region Spain
Timezone Europe/Madrid (UTC+2.0)
Stats Elevation 14 ft / 4 m (AMSL)
Location 43.356520° -1.790611°
Runways 1
Magnetic Variation 0.243° W

METAR

LESO 241600Z 04004KT 350V080 9999 FEW030 22/17 Q1014

Decode

TAF

TAF LESO 241100Z 2412/2512 02008KT 9999 FEW030 TX25/2414Z TN15/2505Z PROB40 TEMPO 2413/2424 SHRA SCT025TCU PROB40 TEMPO 2415/2421 3000 TSRA BKN012 SCT025CB PROB40 TEMPO 2504/2507 4000 BR PROB40 TEMPO 2507/2512 3000 SHRA TS BKN025CB

Decode

Destination Runways

ID Width Length Bearing (true) Bearing (mag) Surface Threshold Offset Overrun Length
04 148 ft / 45 m 5,762 ft / 1,756 m 38.68° 38.92° Asphalt 0 ft / 0 m 0 ft / 0 m
22 148 ft / 45 m 5,762 ft / 1,756 m 218.69° 218.93° Asphalt 0 ft / 0 m 0 ft / 0 m